Time,TemperatureF,DewpointF,PressureIn,WindDirection,WindDirectionDegrees,WindSpeedMPH,WindSpeedGustMPH,Humidity,HourlyPrecipIn,Conditions,Clouds,dailyrainin,SoftwareType,DateUTC
2013-10-02 12:55:00,67.9,63.9,29.90,West,281,2.0,4.0,87,0.00,,,0.00,Wunderground v.1.15,2013-10-02 16:55:00,
2013-10-02 13:00:00,67.9,62.9,29.90,North,5,2.0,2.0,84,0.00,,,0.00,Wunderground v.1.15,2013-10-02 17:00:00,
2013-10-02 13:05:00,67.4,62.7,29.90,North,5,1.0,2.0,85,0.00,,,0.00,Wunderground v.1.15,2013-10-02 17:05:00,
2013-10-02 13:10:00,67.2,63.2,29.90,North,5,0.0,0.0,87,0.00,,,0.00,Wunderground v.1.15,2013-10-02 17:10:00,
2013-10-02 13:15:00,67.3,63.6,29.89,North,5,0.0,0.0,88,0.00,,,0.00,Wunderground v.1.15,2013-10-02 17:15:00,
2013-10-02 13:20:00,67.7,64.3,29.89,WNW,292,1.0,3.0,89,0.00,,,0.00,Wunderground v.1.15,2013-10-02 17:20:00,
2013-10-02 13:30:00,69.7,64.6,29.88,WNW,284,4.0,7.0,84,0.00,,,0.00,Wunderground v.1.15,2013-10-02 17:30:00,
2013-10-02 13:35:00,69.9,64.5,29.88,West,281,5.0,7.0,83,0.00,,,0.00,Wunderground v.1.15,2013-10-02 17:35:00,
2013-10-02 13:45:00,70.3,64.2,29.88,WNW,286,5.0,5.0,81,0.00,,,0.00,Wunderground v.1.15,2013-10-02 17:45:00,
2013-10-02 13:55:00,70.0,63.9,29.88,WNW,289,4.0,5.0,81,0.00,,,0.00,Wunderground v.1.15,2013-10-02 17:55:00,
2013-10-02 14:05:00,71.4,64.5,29.88,West,269,6.0,7.0,79,0.00,,,0.00,Wunderground v.1.15,2013-10-02 18:05:00,
2013-10-02 14:15:00,71.0,64.2,29.87,WNW,288,8.0,10.0,79,0.00,,,0.00,Wunderground v.1.15,2013-10-02 18:15:00,
2013-10-02 14:20:00,71.6,65.1,29.87,West,259,8.0,8.0,80,0.00,,,0.00,Wunderground v.1.15,2013-10-02 18:20:00,
2013-10-02 14:30:00,71.2,64.0,29.87,West,277,5.0,5.0,78,0.00,,,0.00,Wunderground v.1.15,2013-10-02 18:30:00,
2013-10-02 14:35:00,71.1,65.0,29.87,WNW,286,4.0,5.0,81,0.00,,,0.00,Wunderground v.1.15,2013-10-02 18:35:00,
2013-10-02 14:45:00,72.6,65.3,29.86,West,268,4.0,9.0,78,0.00,,,0.00,Wunderground v.1.15,2013-10-02 18:45:00,
2013-10-02 14:50:00,72.8,65.5,29.86,West,277,4.0,4.0,78,0.00,,,0.00,Wunderground v.1.15,2013-10-02 18:50:00,
2013-10-02 14:55:00,72.7,64.7,29.86,WNW,284,6.0,7.0,76,0.00,,,0.00,Wunderground v.1.15,2013-10-02 18:55:00,
2013-10-02 15:05:00,71.9,63.5,29.87,WNW,290,6.0,7.0,75,0.00,,,0.00,Wunderground v.1.15,2013-10-02 19:05:00,
2013-10-02 15:15:00,70.6,63.0,29.87,WNW,288,5.0,5.0,77,0.00,,,0.00,Wunderground v.1.15,2013-10-02 19:15:00,
2013-10-02 15:25:00,71.7,64.1,29.87,WNW,284,5.0,7.0,77,0.00,,,0.00,Wunderground v.1.15,2013-10-02 19:25:00,
2013-10-02 15:30:00,72.3,64.3,29.87,WNW,282,4.0,4.0,76,0.00,,,0.00,Wunderground v.1.15,2013-10-02 19:30:00,
2013-10-02 15:35:00,71.7,63.4,29.87,West,269,5.0,5.0,75,0.00,,,0.00,Wunderground v.1.15,2013-10-02 19:35:00,
2013-10-02 15:45:00,71.9,63.9,29.87,WNW,287,5.0,6.0,76,0.00,,,0.00,Wunderground v.1.15,2013-10-02 19:45:00,
2013-10-02 15:50:00,70.9,63.3,29.87,NW,324,5.0,5.0,77,0.00,,,0.00,Wunderground v.1.15,2013-10-02 19:50:00,
2013-10-02 16:00:00,71.7,64.1,29.87,West,277,5.0,5.0,77,0.00,,,0.00,Wunderground v.1.15,2013-10-02 20:00:00,
2013-10-02 16:05:00,72.2,64.6,29.87,West,274,4.0,5.0,77,0.00,,,0.00,Wunderground v.1.15,2013-10-02 20:05:00,
2013-10-02 16:15:00,72.1,63.7,29.87,West,277,7.0,10.0,75,0.00,,,0.00,Wunderground v.1.15,2013-10-02 20:15:00,
2013-10-02 16:20:00,72.4,64.0,29.87,WNW,284,8.0,8.0,75,0.00,,,0.00,Wunderground v.1.15,2013-10-02 20:20:00,
2013-10-02 16:25:00,72.4,63.3,29.87,West,281,6.0,8.0,73,0.00,,,0.00,Wunderground v.1.15,2013-10-02 20:25:00,
2013-10-02 16:35:00,71.8,62.7,29.87,West,277,8.0,14.0,73,0.00,,,0.00,Wunderground v.1.15,2013-10-02 20:35:00,
2013-10-02 16:45:00,71.5,62.4,29.87,WNW,287,7.0,8.0,73,0.00,,,0.00,Wunderground v.1.15,2013-10-02 20:45:00,
2013-10-02 16:55:00,71.3,62.2,29.87,WNW,288,5.0,10.0,73,0.00,,,0.00,Wunderground v.1.15,2013-10-02 20:55:00,
2013-10-02 17:00:00,71.4,61.5,29.88,West,277,5.0,5.0,71,0.00,,,0.00,Wunderground v.1.15,2013-10-02 21:00:00,
2013-10-02 17:05:00,71.1,61.2,29.88,West,281,6.0,6.0,71,0.00,,,0.00,Wunderground v.1.15,2013-10-02 21:05:00,
2013-10-02 17:15:00,70.7,61.2,29.88,WNW,288,3.0,6.0,72,0.00,,,0.00,Wunderground v.1.15,2013-10-02 21:15:00,
2013-10-02 17:20:00,70.4,61.3,29.88,WNW,282,4.0,4.0,73,0.00,,,0.00,Wunderground v.1.15,2013-10-02 21:20:00,
2013-10-02 17:30:00,69.9,60.8,29.88,WNW,297,4.0,4.0,73,0.00,,,0.00,Wunderground v.1.15,2013-10-02 21:30:00,
2013-10-02 17:35:00,69.5,60.8,29.88,WNW,282,4.0,4.0,74,0.00,,,0.00,Wunderground v.1.15,2013-10-02 21:35:00,
2013-10-02 17:45:00,69.0,60.7,29.89,West,278,4.0,5.0,75,0.00,,,0.00,Wunderground v.1.15,2013-10-02 21:45:00,
2013-10-02 17:55:00,68.3,60.4,29.89,West,277,4.0,7.0,76,0.00,,,0.00,Wunderground v.1.15,2013-10-02 21:55:00,
2013-10-02 18:05:00,67.8,60.0,29.89,West,279,4.0,4.0,76,0.00,,,0.00,Wunderground v.1.15,2013-10-02 22:05:00,
2013-10-02 18:15:00,67.1,60.0,29.90,WNW,282,3.0,3.0,78,0.00,,,0.00,Wunderground v.1.15,2013-10-02 22:15:00,
2013-10-02 18:20:00,66.8,59.7,29.90,WNW,284,3.0,3.0,78,0.00,,,0.00,Wunderground v.1.15,2013-10-02 22:20:00,
2013-10-02 18:30:00,66.3,59.6,29.91,WNW,283,3.0,3.0,79,0.00,,,0.00,Wunderground v.1.15,2013-10-02 22:30:00,
2013-10-02 18:35:00,65.8,59.1,29.91,West,279,3.0,3.0,79,0.00,,,0.00,Wunderground v.1.15,2013-10-02 22:35:00,
2013-10-02 18:45:00,65.4,58.7,29.91,West,277,3.0,5.0,79,0.00,,,0.00,Wunderground v.1.15,2013-10-02 22:45:00,
2013-10-02 18:50:00,65.2,58.9,29.91,West,277,2.0,5.0,80,0.00,,,0.00,Wunderground v.1.15,2013-10-02 22:50:00,
2013-10-02 19:00:00,64.7,58.4,29.92,West,276,3.0,3.0,80,0.00,,,0.00,Wunderground v.1.15,2013-10-02 23:00:00,
2013-10-02 19:05:00,64.5,58.2,29.92,West,278,4.0,4.0,80,0.00,,,0.00,Wunderground v.1.15,2013-10-02 23:05:00,
2013-10-02 19:15:00,64.0,57.4,29.93,WNW,286,4.0,4.0,79,0.00,,,0.00,Wunderground v.1.15,2013-10-02 23:15:00,
2013-10-02 19:20:00,63.7,57.1,29.93,WNW,286,3.0,4.0,79,0.00,,,0.00,Wunderground v.1.15,2013-10-02 23:20:00,
2013-10-02 19:35:00,62.2,56.6,29.93,WNW,286,1.0,4.0,82,0.00,,,0.00,Wunderground v.1.15,2013-10-02 23:35:00,
2013-10-02 19:45:00,61.8,56.6,29.94,WNW,286,1.0,1.0,83,0.00,,,0.00,Wunderground v.1.15,2013-10-02 23:45:00,
2013-10-02 19:50:00,61.8,56.6,29.94,WNW,286,1.0,1.0,83,0.00,,,0.00,Wunderground v.1.15,2013-10-02 23:50:00,
2013-10-02 20:00:00,61.8,55.9,29.95,WNW,286,2.0,2.0,81,0.00,,,0.00,Wunderground v.1.15,2013-10-03 00:00:00,
2013-10-02 20:05:00,61.9,55.3,29.95,WNW,286,2.0,2.0,79,0.00,,,0.00,Wunderground v.1.15,2013-10-03 00:05:00,
2013-10-02 20:15:00,61.8,54.5,29.95,WNW,286,1.0,3.0,77,0.00,,,0.00,Wunderground v.1.15,2013-10-03 00:15:00,
2013-10-02 20:20:00,61.4,53.8,29.95,WNW,286,1.0,4.0,76,0.00,,,0.00,Wunderground v.1.15,2013-10-03 00:20:00,
2013-10-02 20:25:00,61.4,53.4,29.95,WNW,285,1.0,4.0,75,0.00,,,0.00,Wunderground v.1.15,2013-10-03 00:25:00,
2013-10-02 20:35:00,61.6,52.9,29.95,West,279,2.0,2.0,73,0.00,,,0.00,Wunderground v.1.15,2013-10-03 00:35:00,
2013-10-02 20:45:00,61.4,52.7,29.95,West,279,1.0,3.0,73,0.00,,,0.00,Wunderground v.1.15,2013-10-03 00:45:00,
2013-10-02 20:55:00,60.0,52.1,29.95,West,279,0.0,1.0,75,0.00,,,0.00,Wunderground v.1.15,2013-10-03 00:55:00,
2013-10-02 21:00:00,59.9,52.0,29.96,West,279,0.0,0.0,75,0.00,,,0.00,Wunderground v.1.15,2013-10-03 01:00:00,
2013-10-02 21:05:00,59.9,52.0,29.96,West,279,0.0,0.0,75,0.00,,,0.00,Wunderground v.1.15,2013-10-03 01:05:00,
2013-10-02 21:15:00,59.1,51.9,29.96,West,279,0.0,0.0,77,0.00,,,0.00,Wunderground v.1.15,2013-10-03 01:15:00,
2013-10-02 21:20:00,58.9,51.7,29.96,West,279,0.0,0.0,77,0.00,,,0.00,Wunderground v.1.15,2013-10-03 01:20:00,
2013-10-02 21:30:00,57.7,51.2,29.97,West,279,0.0,0.0,79,0.00,,,0.00,Wunderground v.1.15,2013-10-03 01:30:00,
2013-10-02 21:35:00,57.1,51.3,29.97,West,279,0.0,0.0,81,0.00,,,0.00,Wunderground v.1.15,2013-10-03 01:35:00,
2013-10-02 21:45:00,56.2,51.4,29.97,West,279,0.0,0.0,84,0.00,,,0.00,Wunderground v.1.15,2013-10-03 01:45:00,
2013-10-02 21:50:00,55.7,51.3,29.97,West,279,0.0,0.0,85,0.00,,,0.00,Wunderground v.1.15,2013-10-03 01:50:00,
2013-10-02 21:55:00,55.4,51.0,29.97,West,279,0.0,0.0,85,0.00,,,0.00,Wunderground v.1.15,2013-10-03 01:55:00,
2013-10-02 22:05:00,54.3,50.5,29.97,West,279,0.0,0.0,87,0.00,,,0.00,Wunderground v.1.15,2013-10-03 02:05:00,
2013-10-02 22:15:00,53.5,50.6,29.98,West,279,0.0,0.0,90,0.00,,,0.00,Wunderground v.1.15,2013-10-03 02:15:00,
2013-10-02 22:25:00,53.3,50.1,29.98,West,279,0.0,0.0,89,0.00,,,0.00,Wunderground v.1.15,2013-10-03 02:25:00,
2013-10-02 22:30:00,53.3,50.4,29.98,West,279,0.0,0.0,90,0.00,,,0.00,Wunderground v.1.15,2013-10-03 02:30:00,
2013-10-02 22:35:00,53.1,50.2,29.98,West,279,0.0,0.0,90,0.00,,,0.00,Wunderground v.1.15,2013-10-03 02:35:00,
2013-10-02 22:45:00,52.9,50.0,29.99,West,279,0.0,0.0,90,0.00,,,0.00,Wunderground v.1.15,2013-10-03 02:45:00,
2013-10-02 22:50:00,52.8,49.9,29.99,West,279,0.0,0.0,90,0.00,,,0.00,Wunderground v.1.15,2013-10-03 02:50:00,
2013-10-02 22:55:00,52.6,49.8,29.99,West,279,0.0,0.0,90,0.00,,,0.00,Wunderground v.1.15,2013-10-03 02:55:00,
2013-10-02 23:05:00,53.1,50.2,29.99,West,279,0.0,0.0,90,0.00,,,0.00,Wunderground v.1.15,2013-10-03 03:05:00,
2013-10-02 23:15:00,53.0,50.1,29.99,West,279,0.0,0.0,90,0.00,,,0.00,Wunderground v.1.15,2013-10-03 03:15:00,
2013-10-02 23:20:00,52.7,50.1,29.99,West,279,0.0,0.0,91,0.00,,,0.00,Wunderground v.1.15,2013-10-03 03:20:00,
2013-10-02 23:25:00,52.3,49.5,29.99,West,279,0.0,0.0,90,0.00,,,0.00,Wunderground v.1.15,2013-10-03 03:25:00,
2013-10-02 23:35:00,52.1,49.6,30.00,West,279,0.0,0.0,91,0.00,,,0.00,Wunderground v.1.15,2013-10-03 03:35:00,